Weather History for Evanston, WY

Change the Weather History Date:

Saturday, March 9, 2013

  Actual Average Record
Temperature  
Mean Temperature 28 °F 29 °F  
Max Temperature 34 °F 37 °F 52 °F (2014)
Min Temperature 23 °F 20 °F 3 °F (2002)
Degree Days  
Heating Degree Days 36 36  
Month to date heating degree days 278 339  
Since 1 July heating degree days 5873 6347  
Cooling Degree Days 0 0  
Month to date cooling degree days 0 0  
Year to date cooling degree days 0 0  
Moisture  
Dew Point 23 °F    
Average Humidity 81    
Maximum Humidity 100    
Minimum Humidity 61    
Precipitation  
Precipitation 0.00 in 0.02 in 0.17 in (2009)
Month to date precipitation 0.14 0.19  
Year to date precipitation 0.61 1.34  
Sea Level Pressure  
Sea Level Pressure 29.87 in    
Wind  
Wind Speed 12 mph (NNW)    
Max Wind Speed 18 mph    
Max Gust Speed 25 mph    
Visibility 7 miles    
Events Fog , Snow    
T = Trace of Precipitation, MM = Missing Value Source: NWS Daily Summary

Daily Weather History Graph

Daily Weather History Graph

Search for Another Location

Airport:

Trip Planner

Search our weather history database for the weather conditions in past years. The results will help you decide how hot, cold, wet, or windy it might be!

Date:

Astronomy

Mar. 09, 2013 Rise Set
Actual Time 6:45 AM MST 6:24 PM MST
Civil Twilight 6:17 AM MST 6:52 PM MST
Nautical Twilight 5:45 AM MST 7:24 PM MST
Astronomical Twilight 5:13 AM MST 7:56 PM MST
Moon 5:12 AM MST (3/9) 4:29 PM MST (3/9)
Length of Visible Light 12h 34m
Length of Day
11h 39m
Waning Crescent, 5% of the Moon is Illuminated
Mar 9
Waning Crescent
Mar 11
New
Mar 19
First Quarter
Mar 27
Full
Apr 2
Last Quarter

Hourly Weather History & Observations

Time (MST) Temp. Windchill Dew Point Humidity Pressure Visibility Wind Dir Wind Speed Gust Speed Precip Events Conditions
12:53 AM 30.0 °F 19.5 °F 27.0 °F 88% 29.70 in 2.5 mi North 13.8 mph - 0.00 in Snow Light Snow
1:05 AM 30.2 °F 19.8 °F 26.6 °F 86% 29.72 in 4.0 mi North 13.8 mph - 0.00 in Snow Light Snow
1:23 AM 30.2 °F 19.8 °F 26.6 °F 86% 29.73 in 7.0 mi North 13.8 mph - 0.00 in   Overcast
1:34 AM 28.4 °F 18.0 °F 26.6 °F 93% 29.73 in 6.0 mi North 12.7 mph - 0.00 in   Overcast
1:53 AM 28.9 °F 18.2 °F 27.0 °F 92% 29.70 in 4.0 mi North 13.8 mph - 0.00 in   Overcast
2:03 AM 28.4 °F 19.1 °F 26.6 °F 93% 29.73 in 6.0 mi North 10.4 mph - N/A   Overcast
2:48 AM 28.4 °F 19.1 °F 26.6 °F 93% 29.72 in 6.0 mi North 10.4 mph - N/A   Overcast
2:53 AM 28.0 °F 19.3 °F 26.1 °F 92% 29.69 in 6.0 mi North 9.2 mph - N/A   Overcast
3:07 AM 28.4 °F 18.5 °F 26.6 °F 93% 29.72 in 4.0 mi North 11.5 mph - 0.00 in Snow Light Snow
3:53 AM 27.0 °F 17.3 °F 25.0 °F 92% 29.70 in 4.0 mi North 10.4 mph - 0.00 in Snow Light Snow
4:18 AM 26.6 °F 16.8 °F 24.8 °F 93% 29.73 in 4.0 mi North 10.4 mph - 0.00 in   Overcast
4:53 AM 26.1 °F 14.5 °F 24.1 °F 92% 29.73 in 2.5 mi North 13.8 mph - 0.00 in   Overcast
4:57 AM 26.6 °F 15.7 °F 24.8 °F 93% 29.74 in 1.5 mi North 12.7 mph - N/A   Overcast
5:13 AM 26.6 °F 16.2 °F 24.8 °F 93% 29.75 in 0.5 mi NNW 11.5 mph - N/A Fog Light Freezing Fog
5:25 AM 26.6 °F 16.8 °F 24.8 °F 93% 29.75 in 1.8 mi North 10.4 mph - N/A   Overcast
5:31 AM 26.6 °F 16.2 °F 24.8 °F 93% 29.76 in 3.0 mi North 11.5 mph - N/A   Overcast
5:53 AM 26.1 °F 15.6 °F 24.1 °F 92% 29.77 in 4.0 mi North 11.5 mph - N/A   Overcast
6:04 AM 26.6 °F 16.2 °F 24.8 °F 93% 29.77 in 2.0 mi NNW 11.5 mph - N/A   Overcast
6:30 AM 26.6 °F 16.2 °F 24.8 °F 93% 29.78 in 4.0 mi North 11.5 mph - N/A   Overcast
6:44 AM 26.6 °F 16.2 °F 24.8 °F 93% 29.79 in 7.0 mi North 11.5 mph - N/A   Overcast
6:53 AM 26.1 °F 15.6 °F 24.1 °F 92% 29.80 in 7.0 mi NNW 11.5 mph - N/A   Overcast
7:53 AM 25.0 °F 14.2 °F 24.1 °F 96% 29.85 in 5.0 mi North 11.5 mph - N/A   Overcast
8:18 AM 24.8 °F 13.4 °F 24.8 °F 100% 29.83 in 6.0 mi NNW 12.7 mph - N/A   Overcast
8:45 AM 26.6 °F 15.2 °F 24.8 °F 93% 29.84 in 6.0 mi North 13.8 mph - N/A   Overcast
8:53 AM 25.0 °F 13.1 °F 23.0 °F 92% 29.88 in 7.0 mi NNW 13.8 mph - N/A   Overcast
9:11 AM 26.6 °F 15.2 °F 23.0 °F 86% 29.85 in 10.0 mi North 13.8 mph - N/A   Overcast
9:53 AM 26.1 °F 15.6 °F 23.0 °F 88% 29.89 in 10.0 mi NNW 11.5 mph - N/A   Overcast
10:00 AM 26.6 °F 16.8 °F 24.8 °F 93% 29.87 in 10.0 mi NNW 10.4 mph - N/A   Overcast
10:53 AM 28.0 °F 18.6 °F 23.0 °F 81% 29.92 in 10.0 mi North 10.4 mph - N/A   Overcast
11:39 AM 30.2 °F 21.9 °F 24.8 °F 80% 29.92 in 10.0 mi North 9.2 mph - 0.01 in   Overcast
11:53 AM 30.9 °F 22.2 °F 24.1 °F 76% 29.92 in 10.0 mi NNW 10.4 mph - 0.01 in   Overcast
12:16 PM 32.0 °F 24.2 °F 24.8 °F 75% 29.92 in 10.0 mi North 9.2 mph - N/A   Scattered Clouds
12:53 PM 34.0 °F 28.8 °F 24.1 °F 67% 29.92 in 10.0 mi WNW 5.8 mph - N/A   Partly Cloudy
1:11 PM 33.8 °F 27.7 °F 24.8 °F 70% 29.93 in 10.0 mi North 6.9 mph - N/A   Mostly Cloudy
1:33 PM 33.8 °F 27.0 °F 24.8 °F 70% 29.93 in 10.0 mi North 8.1 mph - N/A   Scattered Clouds
1:53 PM 34.0 °F 26.0 °F 23.0 °F 64% 29.93 in 10.0 mi NNW 10.4 mph - N/A   Partly Cloudy
2:53 PM 34.0 °F 22.7 °F 21.0 °F 59% 29.95 in 10.0 mi North 19.6 mph - N/A   Clear
3:53 PM 34.0 °F 22.7 °F 21.0 °F 59% 29.98 in 10.0 mi North 19.6 mph - N/A   Clear
4:53 PM 34.0 °F 23.4 °F 18.0 °F 52% 30.02 in 10.0 mi North 17.3 mph 21.9 mph N/A   Clear
5:53 PM 30.9 °F 18.1 °F 17.1 °F 57% 30.06 in 10.0 mi North 21.9 mph - N/A   Clear
6:53 PM 27.0 °F 16.1 °F 16.0 °F 63% 30.12 in 10.0 mi NNW 12.7 mph - N/A   Clear
7:53 PM 25.0 °F - 15.1 °F 66% 30.19 in 10.0 mi Calm Calm - N/A   Clear
8:53 PM 24.1 °F 13.1 °F 15.1 °F 69% 30.21 in 10.0 mi NNW 11.5 mph - N/A   Clear
9:53 PM 24.1 °F 12.0 °F 15.1 °F 69% 30.24 in 10.0 mi North 13.8 mph - N/A   Clear
10:53 PM 23.0 °F 11.7 °F 14.0 °F 68% 30.24 in 10.0 mi North 11.5 mph - N/A   Clear
11:53 PM 23.0 °F - 14.0 °F 68% 30.25 in 10.0 mi Calm Calm - N/A   Clear